Miscellaneous Local Product
Issued by NWS North Platte, NE

Home | Current Version | Previous Version | Graphics & Text | Print | Product List | Glossary On
Versions: 1 2 3 4 5 6 7 8 9 10 11 12 13 14 15 16 17 18 19 20 21 22 23 24 25 26 27 28 29 30 31 32 33 34 35 36 37 38 39 40 41 42 43 44 45 46 47 48 49 50
000
AXUS43 KLBF 200910
MISLBF


WESTERN AND NORTH CENTRAL NEBRASKA HOURLY WEATHER ROUNDUP
NATIONAL WEATHER SERVICE NORTH PLATTE NE
300 AM CST FRI JAN 20 2017

NOTE: "FAIR" INDICATES FEW OR NO CLOUDS BELOW 12,000 FEET WITH NO
SIGNIFICANT WEATHER AND/OR OBSTRUCTIONS TO VISIBILITY.

NOTE: STATIONS NOT REPORTING VARIABLES SUCH AS SKY/WEATHER OR
PRESSURE ARE PROVIDED BY RAWS AND APRS NETWORKS AND ARE NOT UNDER
NATIONAL WEATHER SERVICE QUALITY CONTROL.

...OBSERVATIONS IN AND NEAR THE EASTERN PANHANDLE OF NEBRASKA...

CITY           SKY/WX    TMP DP  RH WIND       PRES   REMARKS
PINE RIDGE     CLOUDY    33  24  69 W7        29.42F WCI  27
CHADRON        CLOUDY    21  17  84 W12       29.44F WCI   9
ALLIANCE       CLOUDY    18  16  92 W5        29.46S WCI  11
SIDNEY         CLOUDY    29  23  78 NW10      29.48S WCI  20
CRESCENT LAKE    N/A     24  23  97 CALM        N/A
$$

...OBSERVATIONS IN NORTHERN NEBRASKA AND FAR SOUTHERN SOUTH DAKOTA...

CITY           SKY/WX    TMP DP  RH WIND       PRES   REMARKS
WINNER         FAIR      33  31  92 S6        29.43S WCI  28
VALENTINE      CLOUDY    24  20  84 SW6       29.43S WCI  17
THEDFORD       MOCLDY    32  31  98 SW12      29.46F WCI  23
AINSWORTH      CLEAR     31  31 100 S13       29.43S WCI  22
O`NEILL        CLOUDY    40  38  91 S10       29.48S WCI  34
ORD            CLEAR     38  35  89 CALM      29.49F
BROKEN BOW     CLEAR     36  34  92 S5        29.48F WCI  32
VALENTINE NWR    N/A     29  27  92 SW5G12      N/A  WCI  24
BUTTE            N/A     38  35  90 S7G14       N/A  WCI  33
HALSEY           N/A     50  28  43 S9G17       N/A
SARGENT          N/A     35  26  69 CALM        N/A
CHAMBERS         N/A     37  36  97 S3          N/A
EWING            N/A     39  37  94 S6          N/A  WCI  35
$$

...OBSERVATIONS IN SOUTHWEST NEBRASKA AND FAR NORTHEAST COLORADO...

CITY           SKY/WX    TMP DP  RH WIND       PRES   REMARKS
WRAY           FAIR      23  23 100 W6        29.49  WCI  16
HOLYOKE        FAIR      25  21  86 W9        29.48R WCI  15
IMPERIAL       FOG       30  29  96 SW9       29.49S VSB 1/2 WCI  22
OGALLALA       FOG       30  29  98 W3        29.50R VSB 3/4
NORTH PLATTE   CLOUDY    36  34  92 CALM      29.48F
MCCOOK         FOG       33  33 100 CALM      29.51R VSB 1/4
LEXINGTON      FOG       34  33  96 CALM      29.51F VSB 3/4
STAPLETON        N/A     34  32  93 CALM        N/A
GOTHENBURG       N/A     36  34  93 CALM        N/A
CALLAWAY         N/A     36  35  95 SW5         N/A  WCI  32
$$

...OBSERVATIONS IN CENTRAL LINCOLN COUNTY AREA...

CITY           SKY/WX    TMP DP  RH WIND       PRES   REMARKS
N.P. AIRPORT   CLOUDY    36  34  92 CALM      29.48F
N.P. DOWNTOWN    N/A     35  33  94 CALM        N/A
N.P. SOUTHEAST   N/A     35  33  91 CALM        N/A
N.P. HILLCREST   N/A     34  34 100 CALM        N/A
$$

...SOME OBSERVATIONS FROM AROUND THE REGION...

CITY           SKY/WX    TMP DP  RH WIND       PRES   REMARKS
LARAMIE        CLOUDY    23  16  74 CALM      29.50S
CHEYENNE       CLOUDY    36  20  52 W15       29.47S WCI  27
DENVER         CLOUDY    32  22  66 SW6       29.47S WCI  26
AKRON          CLOUDY    33  22  63 NE5       29.46F WCI  29
SCOTTSBLUFF    CLOUDY    25  20  81 NW5       29.48S WCI  19
RAPID CITY     CLOUDY    29  20  69 N9        29.39F WCI  20
BISMARCK       FOG       20  19  96 CALM      29.46R VSB 1/4
PIERRE         FOG       22  20  92 W5        29.43S VSB 1/4 WCI  16
SIOUX FALLS    CLOUDY    37  37 100 S9        29.54F WCI  30
OMAHA          FOG       37  34  89 NW5       29.61R VSB 1/2 WCI  33
GRAND ISLAND   FOG       37  37 100 S5        29.54F VSB 1/2 WCI  33
KANSAS CITY    FOG       45  43  93 E6        29.59F VSB 1/2
WICHITA        CLOUDY    44  44 100 SE5       29.53S FOG
OKLAHOMA CITY  FOG       45  45 100 S7        29.51S VSB 1/4
DALLAS         CLEAR     50  46  86 SW12      29.60R
AMARILLO       CLEAR     46  32  58 W21G30    29.49R
DODGE CITY     CLOUDY    34  33  96 N3        29.50S FOG
HAYS           FOG       41  41 100 SE5       29.53R VSB 1/4
GOODLAND       FOG       30  30 100 CALM      29.48R VSB 1/4
$$




USA.gov is the U.S. government's official web portal to all federal, state and local government web resources and services.